EW6750 Weather Reports


Display with metric or nautical units.
time (UTC)temp
F
wind
direction
speed
MPH
gust
MPH
rain 1hr
in
rain 24hr
in
rain mn
in
humidity
%
barometer
mb
20260508070538 53 0.0 0.0 0.00 0.00 0.00 80 1016.6
20260508065535 53 0.0 0.0 0.00 0.00 0.00 80 1016.5
20260508064532 52 0.0 0.0 0.00 0.00 0.00 81 1016.2
20260508063527 52 0.0 0.0 0.00 0.00 0.00 81 1016.2
20260508062524 51 0.0 0.0 0.00 0.00 0.00 82 1016.2
20260508061521 51 0.0 0.0 0.00 0.00 0.00 84 1016.1
20260508060517 50 0.0 0.0 0.00 0.00 0.00 84 1016.0
20260508055635 50 0.0 0.0 0.00 0.00 0.00 85 1015.9
20260508054610 49 0.0 0.0 0.00 0.00 0.00 85 1016.1
20260508053607 49 0.0 0.0 0.00 0.00 0.00 85 1015.8
20260508052607 48 0.0 0.0 0.00 0.00 0.00 85 1016.0
20260508051559 48 0.0 0.0 0.00 0.00 0.00 85 1015.9
20260508050616 47 0.0 0.0 0.00 0.00 0.00 85 1015.9
20260508045554 47 0.0 0.0 0.00 0.00 0.00 85 1015.7
20260508044549 46 0.0 0.0 0.00 0.00 0.00 84 1015.8
20260508043551 46 0.0 0.0 0.00 0.00 0.00 84 1015.7
20260508042542 46 0.0 0.0 0.00 0.00 0.00 84 1015.7
20260508041539 46 0.0 0.0 0.00 0.00 0.00 84 1015.7
20260508040535 46 0.0 0.0 0.00 0.00 0.00 84 1015.7
20260508035533 46 0.0 0.0 0.00 0.00 0.00 83 1015.6
20260508034528 46 0.0 0.0 0.00 0.00 0.00 83 1015.6
20260508033524 46 0.0 0.0 0.00 0.00 0.00 83 1015.5
20260508032521 46 0.0 0.0 0.00 0.00 0.00 83 1015.5
20260508031517 46 0.0 0.0 0.00 0.00 0.00 82 1015.5
20260508030614 46 0.0 0.0 0.00 0.00 0.00 82 1015.5
20260508025610 46 0.0 0.0 0.00 0.00 0.00 81 1015.5
20260508024609 46 0.0 0.0 0.00 0.00 0.00 81 1015.5
20260508023604 46 0.0 0.0 0.00 0.00 0.00 80 1015.5
20260508022600 46 0.0 0.0 0.00 0.00 0.00 80 1015.5
20260508021557 47 0.0 0.0 0.00 0.00 0.00 80 1015.6
20260508020638 47 0.0 0.0 0.00 0.00 0.00 79 1015.5
20260508015550 47 0.0 0.0 0.00 0.00 0.00 77 1015.4
20260508014545 47 0.0 0.0 0.00 0.00 0.00 77 1015.5
20260508013541 48 0.0 0.0 0.00 0.00 0.00 76 1015.4
20260508012538 48 0.0 0.0 0.00 0.00 0.00 74 1015.4
20260508011534 48 0.0 0.0 0.00 0.00 0.00 73 1015.5
20260508010531 49 0.0 0.0 0.00 0.00 0.00 73 1015.6
20260508005529 50 0.0 0.0 0.00 0.00 0.00 73 1015.6
20260508004524 50 0.0 1.0 0.00 0.00 0.00 72 1015.7
20260508003520 50 0.0 0.0 0.00 0.00 0.00 71 1015.6
20260508002520 51 0.0 0.0 0.00 0.00 0.00 71 1015.6
20260508001612 52 0.0 0.0 0.00 0.00 0.00 71 1015.6
20260508000609 52 0.0 0.0 0.00 0.00 0.00 71 1015.6
20260507235605 53 0.0 0.0 0.00 0.00 0.00 71 1015.6
20260507234602 53 0.0 0.0 0.00 0.00 0.00 72 1015.5
20260507233600 53 0.0 1.0 0.00 0.00 0.00 72 1015.5
20260507232555 53 0.0 0.0 0.00 0.00 0.00 72 1015.6
20260507231552 53 0.0 1.0 0.00 0.00 0.00 72 1015.5
20260507230630 53 0.0 1.0 0.00 0.00 0.00 72 1015.5
20260507225545 53 45 0.0 2.0 0.00 0.00 0.00 72 1015.6
20260507224543 53 0 0.0 2.0 0.00 0.00 0.00 72 1015.5
20260507223540 54 0.0 0.0 0.00 0.00 0.00 71 1015.4
20260507222556 54 0.0 1.0 0.00 0.00 0.00 71 1015.3
20260507221532 54 0.0 1.0 0.00 0.00 0.00 71 1015.4
20260507220546 54 20 1.0 2.0 0.00 0.00 0.00 71 1015.4
20260507215523 54 0.0 1.0 0.00 0.00 0.00 71 1015.4
20260507214520 54 0.0 1.0 0.00 0.00 0.00 71 1015.4
20260507213517 54 0.0 1.0 0.00 0.00 0.00 71 1015.4
20260507212612 54 0.0 1.0 0.00 0.00 0.00 71 1015.3
20260507211608 54 0 0.0 2.0 0.00 0.00 0.00 71 1015.4
20260507210607 54 0.0 0.0 0.00 0.00 0.00 71 1015.3
20260507205602 54 0.0 1.0 0.00 0.00 0.00 68 1015.2
20260507204600 55 0.0 1.0 0.00 0.00 0.00 65 1015.1
20260507203555 55 75 0.0 2.0 0.00 0.00 0.00 65 1015.1
20260507202553 55 23 0.0 2.0 0.00 0.00 0.00 64 1015.1
20260507201611 56 346 3.0 5.0 0.00 0.00 0.00 61 1015.0
20260507200544 56 340 2.0 3.0 0.00 0.00 0.00 60 1015.0
20260507195541 57 284 3.0 8.0 0.00 0.00 0.00 60 1015.0
20260507194540 57 303 4.0 7.0 0.00 0.00 0.00 58 1014.9
20260507193535 57 340 3.0 4.0 0.00 0.00 0.00 54 1014.7
20260507192530 57 327 2.0 6.0 0.00 0.00 0.00 53 1014.7
20260507191527 58 282 4.0 8.0 0.00 0.00 0.00 53 1014.6
20260507190525 58 0 2.0 2.0 0.00 0.00 0.00 52 1014.5
20260507185520 58 25 1.0 4.0 0.00 0.00 0.00 52 1014.4
20260507184518 58 6 1.0 3.0 0.00 0.00 0.00 51 1014.3
20260507183613 58 90 0.0 2.0 0.00 0.00 0.00 51 1014.3
20260507182610 58 203 1.0 4.0 0.00 0.00 0.00 50 1014.3
20260507181608 58 13 1.0 4.0 0.00 0.00 0.00 50 1014.1
20260507180643 59 53 1.0 2.0 0.00 0.00 0.00 50 1014.1
20260507175559 59 344 2.0 4.0 0.00 0.00 0.00 49 1014.1
20260507174557 59 295 2.0 4.0 0.00 0.00 0.00 48 1014.1
20260507173552 59 314 1.0 4.0 0.00 0.00 0.00 47 1014.0
20260507172548 59 308 3.0 6.0 0.00 0.00 0.00 46 1014.1
20260507171546 60 341 2.0 5.0 0.00 0.00 0.00 45 1014.1
20260507170542 60 293 2.0 3.0 0.00 0.00 0.00 44 1014.2
20260507165538 60 291 3.0 6.0 0.00 0.00 0.00 44 1014.2
20260507164555 61 335 3.0 8.0 0.00 0.00 0.00 45 1014.2
20260507163552 61 353 3.0 4.0 0.00 0.00 0.00 44 1014.2
20260507162526 61 343 3.0 6.0 0.00 0.00 0.00 45 1014.2
20260507161524 60 342 4.0 8.0 0.00 0.00 0.00 45 1014.1
20260507160519 60 323 3.0 5.0 0.00 0.00 0.00 45 1014.2
20260507155519 61 340 2.0 5.0 0.00 0.00 0.00 46 1014.2
20260507154612 61 290 3.0 8.0 0.00 0.00 0.00 45 1014.2
20260507153609 61 322 3.0 7.0 0.00 0.00 0.00 47 1014.4
20260507152625 61 329 4.0 7.0 0.00 0.00 0.00 46 1014.4
20260507150558 62 315 4.0 5.0 0.00 0.00 0.00 49 1014.4
20260507145616 61 349 3.0 5.0 0.00 0.00 0.00 49 1014.5
20260507144613 61 293 4.0 8.0 0.00 0.00 0.00 49 1014.6
20260507143549 61 2 3.0 5.0 0.00 0.00 0.00 49 1014.9
20260507142546 60 306 3.0 4.0 0.00 0.00 0.00 47 1015.0
20260507141541 61 313 3.0 6.0 0.00 0.00 0.00 49 1015.1
20260507140537 60 301 4.0 6.0 0.00 0.00 0.00 48 1015.2
20260507135534 61 336 3.0 5.0 0.00 0.00 0.00 50 1015.2
20260507134550 61 322 1.0 3.0 0.00 0.00 0.00 50 1015.4
20260507133550 60 292 3.0 4.0 0.00 0.00 0.00 50 1015.3
20260507132523 61 51 2.0 3.0 0.00 0.00 0.00 49 1015.5
20260507131520 60 282 3.0 7.0 0.00 0.00 0.00 48 1015.4
20260507130537 60 45 3.0 4.0 0.00 0.00 0.00 46 1015.4
20260507125635 60 306 5.0 8.0 0.00 0.00 0.00 45 1015.4
20260507124610 60 273 3.0 7.0 0.00 0.00 0.00 46 1015.4
20260507123608 60 0 1.0 3.0 0.00 0.00 0.00 51 1015.5
20260507122602 59 0 1.0 4.0 0.00 0.00 0.00 52 1015.6
20260507121620 58 338 3.0 4.0 0.00 0.00 0.00 52 1015.6
20260507120738 58 344 3.0 5.0 0.00 0.00 0.00 50 1015.7
20260507115552 57 10 2.0 4.0 0.00 0.00 0.00 51 1015.6
20260507114548 57 277 4.0 7.0 0.00 0.00 0.00 50 1015.8
20260507113546 57 63 1.0 3.0 0.00 0.00 0.00 52 1015.7
20260507112544 56 356 2.0 4.0 0.00 0.00 0.00 57 1015.7
20260507111539 56 359 2.0 5.0 0.00 0.00 0.00 62 1015.7
20260507110534 55 45 2.0 3.0 0.00 0.00 0.00 63 1015.9
20260507105531 55 353 1.0 2.0 0.00 0.00 0.00 65 1016.0
20260507104529 54 360 1.0 3.0 0.00 0.00 0.00 70 1016.0
20260507103525 53 5 1.0 2.0 0.00 0.00 0.00 70 1016.1
20260507102542 53 327 1.0 2.0 0.00 0.00 0.00 71 1016.1
20260507101517 53 0 0.0 2.0 0.00 0.00 0.00 71 1015.9
20260507100614 53 338 1.0 2.0 0.00 0.00 0.00 72 1016.0
20260507095610 52 0 0.0 2.0 0.00 0.00 0.00 72 1016.1
20260507094607 52 315 0.0 3.0 0.00 0.00 0.00 73 1016.1
20260507093625 51 358 1.0 2.0 0.00 0.00 0.00 73 1016.1
20260507092601 51 334 2.0 3.0 0.00 0.00 0.00 75 1016.1
20260507091557 51 0.0 1.0 0.00 0.00 0.00 76 1016.1
20260507090636 50 0 1.0 2.0 0.00 0.00 0.00 76 1016.1
20260507085551 49 345 1.0 2.0 0.00 0.00 0.00 76 1016.1
20260507084547 49 334 1.0 2.0 0.00 0.00 0.00 77 1016.1
20260507083542 49 15 0.0 2.0 0.00 0.00 0.00 77 1016.0
20260507082539 49 45 0.0 2.0 0.00 0.00 0.00 78 1016.0
20260507081535 49 344 1.0 4.0 0.00 0.00 0.00 79 1016.1
20260507080533 49 45 1.0 3.0 0.00 0.00 0.00 80 1016.3
20260507075530 48 55 0.0 2.0 0.00 0.00 0.00 80 1016.2
20260507074546 48 30 1.0 3.0 0.00 0.00 0.00 81 1016.1
20260507073521 47 0 0.0 2.0 0.00 0.00 0.00 81 1016.0
20260507072519 47 345 0.0 2.0 0.00 0.00 0.00 81 1016.1
20260507071614 47 60 1.0 2.0 0.00 0.00 0.00 81 1016.0